Orbital Elements at Epoch 2459200.5 (2020-Dec-17.0) TDB
Reference: JPL 25 (heliocentric ecliptic J2000)
Element | Value | Uncertainty (1-sigma) | Units |
e | .1584550826560898 | 3.9135e-08 | |
a | 2.198751101122099 | 6.6781e-09 | au |
q | 1.850347813653629 | 8.4375e-08 | au |
i | .8550368445625657 | 3.9424e-06 | deg |
node | 315.2714324653132 | 0.00031892 | deg |
peri | 34.41686804462188 | 0.00031933 | deg |
M | 174.0332349450421 | 1.718e-05 | deg |
tp | 2458624.805309592461 (2019-May-21.30530959) | 5.5967e-05 | TDB |
period | 1190.865001228999 3.26 | 5.4254e-06 1.485e-08 | d yr |
n | .3023012680937572 | 1.3772e-09 | deg/d |
Q | 2.54715438859057 | 7.7363e-09 | au |
|
| | Orbit Determination Parameters
Additional Information
|